TimeEDT,TemperatureF,Dew PointF,Humidity,Sea Level PressureIn,VisibilityMPH,Wind Direction,Wind SpeedMPH,Gust SpeedMPH,PrecipitationIn,Events,Conditions,WindDirDegrees,DateUTC
12:53 AM,44.1,34.0,68,30.13,10.0,East,6.9,-,N/A,,Overcast,90,2013-04-12 04:53:00
1:53 AM,44.1,34.0,68,30.13,10.0,ENE,8.1,-,N/A,,Overcast,70,2013-04-12 05:53:00
2:53 AM,44.1,33.1,65,30.11,10.0,ENE,11.5,-,N/A,,Overcast,70,2013-04-12 06:53:00
3:53 AM,44.1,33.1,65,30.12,10.0,ENE,12.7,-,N/A,,Overcast,70,2013-04-12 07:53:00
4:53 AM,44.1,32.0,63,30.12,10.0,ENE,12.7,-,N/A,,Overcast,60,2013-04-12 08:53:00
5:53 AM,43.0,32.0,65,30.11,10.0,ENE,13.8,20.7,N/A,,Overcast,70,2013-04-12 09:53:00
6:53 AM,43.0,32.0,65,30.12,10.0,East,19.6,24.2,N/A,,Overcast,80,2013-04-12 10:53:00
7:53 AM,43.0,32.0,65,30.11,10.0,East,17.3,28.8,N/A,,Overcast,80,2013-04-12 11:53:00
8:53 AM,44.1,33.1,65,30.10,10.0,East,20.7,32.2,N/A,,Overcast,90,2013-04-12 12:53:00
9:53 AM,44.1,30.9,60,30.10,10.0,East,21.9,29.9,0.00,,Overcast,90,2013-04-12 13:53:00
10:53 AM,45.0,30.9,58,30.06,10.0,East,27.6,38.0,0.00,,Overcast,100,2013-04-12 14:53:00
11:53 AM,41.0,30.9,67,30.01,10.0,East,26.5,36.8,N/A,,Overcast,100,2013-04-12 15:53:00
12:16 PM,39.2,33.8,81,30.00,3.0,ESE,27.6,35.7,0.02,Rain,Rain,110,2013-04-12 16:16:00
12:24 PM,39.2,35.6,87,29.99,3.0,East,20.7,35.7,0.05,Rain,Rain,100,2013-04-12 16:24:00
12:32 PM,39.2,35.6,87,29.99,3.0,East,25.3,38.0,0.06,Rain,Rain,100,2013-04-12 16:32:00
12:50 PM,39.2,35.6,87,29.98,3.0,East,26.5,41.4,0.08,Rain,Rain,100,2013-04-12 16:50:00
12:53 PM,39.9,35.1,83,29.98,3.0,East,26.5,36.8,0.08,Rain,Light Rain,100,2013-04-12 16:53:00
12:55 PM,39.2,35.6,87,29.98,3.0,East,29.9,38.0,0.00,Rain,Light Rain,100,2013-04-12 16:55:00
1:53 PM,41.0,36.0,82,29.94,3.0,ESE,25.3,40.3,0.04,Rain,Light Rain,110,2013-04-12 17:53:00
1:55 PM,41.0,35.6,81,29.94,1.5,ESE,29.9,40.3,0.00,Rain,Rain,110,2013-04-12 17:55:00
2:30 PM,41.0,37.4,87,29.92,3.0,East,24.2,35.7,0.01,Rain,Light Rain,100,2013-04-12 18:30:00
2:53 PM,41.0,37.9,89,29.90,3.0,ESE,29.9,38.0,0.02,Rain,Light Rain,110,2013-04-12 18:53:00
3:23 PM,41.0,37.4,87,29.87,3.0,ESE,23.0,29.9,0.02,Rain,Light Rain,110,2013-04-12 19:23:00
3:53 PM,42.1,39.0,89,29.83,1.2,East,19.6,29.9,0.10,Rain,Light Rain,100,2013-04-12 19:53:00
4:18 PM,42.8,39.2,87,29.83,3.0,East,13.8,26.5,0.02,Rain,Light Rain,90,2013-04-12 20:18:00
4:25 PM,42.8,39.2,87,29.82,2.0,East,19.6,25.3,0.05,Rain,Heavy Rain,80,2013-04-12 20:25:00
4:53 PM,43.0,41.0,93,29.80,2.0,East,18.4,24.2,0.14,Rain,Rain,80,2013-04-12 20:53:00
5:27 PM,44.6,42.8,93,29.78,1.2,ENE,15.0,21.9,0.17,Rain,Heavy Rain,70,2013-04-12 21:27:00
5:53 PM,45.0,42.1,90,29.78,2.0,NE,15.0,19.6,0.26,Rain,Rain,50,2013-04-12 21:53:00
6:35 PM,46.4,42.8,87,29.75,8.0,East,9.2,-,0.03,,Overcast,80,2013-04-12 22:35:00
6:53 PM,48.0,46.0,93,29.73,2.5,East,11.5,-,0.05,Rain,Rain,100,2013-04-12 22:53:00
7:02 PM,48.2,46.4,93,29.73,3.0,East,10.4,-,0.03,Rain,Rain,100,2013-04-12 23:02:00
7:10 PM,48.2,48.2,100,29.72,2.5,ENE,5.8,-,0.04,Rain,Light Rain,60,2013-04-12 23:10:00
7:17 PM,48.2,48.2,100,29.72,5.0,ENE,5.8,-,0.04,Rain,Light Rain,70,2013-04-12 23:17:00
7:29 PM,50.0,48.2,94,29.71,6.0,East,6.9,-,0.04,Rain,Light Rain,100,2013-04-12 23:29:00
7:42 PM,50.0,48.2,94,29.71,1.8,ESE,6.9,-,0.12,Rain,Heavy Rain,110,2013-04-12 23:42:00
7:49 PM,51.8,48.2,88,29.70,3.0,ESE,8.1,-,0.14,Rain,Rain,110,2013-04-12 23:49:00
7:50 PM,51.8,48.2,88,29.70,2.5,ESE,8.1,-,0.14,Rain,Rain,110,2013-04-12 23:50:00
7:53 PM,51.1,48.9,92,29.70,2.5,ESE,6.9,-,0.15,Rain,Rain,110,2013-04-12 23:53:00
8:38 PM,51.8,50.0,94,29.67,0.8,East,3.5,-,0.06,,Mist,100,2013-04-13 00:38:00
8:53 PM,52.0,50.0,93,29.69,1.0,WNW,4.6,-,0.23,Rain,Heavy Rain,300,2013-04-13 00:53:00
9:05 PM,51.8,51.8,100,29.68,2.0,Calm,Calm,-,0.06,Rain,Rain,0,2013-04-13 01:05:00
9:14 PM,51.8,50.0,94,29.67,1.8,ENE,3.5,-,0.12,Rain,Rain,60,2013-04-13 01:14:00
9:23 PM,51.8,51.8,100,29.67,2.5,Calm,Calm,-,0.14,Rain,Light Rain,0,2013-04-13 01:23:00
9:51 PM,53.6,51.8,94,29.65,1.2,SSE,6.9,-,0.20,Rain,Rain,150,2013-04-13 01:51:00
9:53 PM,53.1,52.0,96,29.66,1.2,SSE,6.9,-,0.21,Rain,Rain,150,2013-04-13 01:53:00
10:11 PM,51.8,50.0,94,29.66,0.8,South,6.9,-,0.05,Rain,Rain,180,2013-04-13 02:11:00
10:22 PM,51.8,48.2,88,29.66,0.8,SSW,9.2,-,0.06,Rain,Light Rain,210,2013-04-13 02:22:00
10:34 PM,51.8,48.2,88,29.65,0.8,WSW,6.9,-,0.07,Rain,Light Rain,240,2013-04-13 02:34:00
10:43 PM,51.8,48.2,88,29.66,1.0,West,10.4,-,0.07,Rain,Light Rain,260,2013-04-13 02:43:00
10:53 PM,48.0,46.9,96,29.66,2.5,NW,10.4,-,0.07,,Overcast,310,2013-04-13 02:53:00
11:07 PM,46.4,44.6,93,29.66,1.8,NNW,12.7,-,N/A,,Overcast,330,2013-04-13 03:07:00
11:14 PM,46.4,44.6,93,29.66,3.0,NNW,11.5,-,N/A,,Overcast,330,2013-04-13 03:14:00
11:25 PM,44.6,42.8,93,29.64,1.8,NNW,12.7,-,N/A,,Overcast,330,2013-04-13 03:25:00
11:41 PM,44.6,44.6,100,29.65,0.5,NNW,13.8,-,N/A,Fog,Fog,340,2013-04-13 03:41:00
11:53 PM,45.0,43.0,93,29.65,0.5,NNW,12.7,-,N/A,Fog,Fog,340,2013-04-13 03:53:00